Regional Weather Roundup
Issued by NWS

Home | Current Version | Previous Version | Graphics & Text | Print | Product List | Glossary On
Versions: 1 2 3 4 5 6 7 8 9 10 11 12 13 14 15 16 17 18 19 20 21 22 23 24 25 26 27 28 29 30 31 32 33 34 35 36 37 38 39 40 41 42 43 44 45 46 47 48 49 50
000
ASUS44 KMEG 251710
RWRTN
TENNESSEE HOURLY STATE WEATHER ROUNDUP
NATIONAL WEATHER SERVICE MEMPHIS TN
1100 AM CST SAT FEB 25 2017

TNZ002-004-019-021-049-052-054-088>092-251800-
WEST TENNESSEE

CITY           SKY/WX    TMP DP  RH WIND       PRES   REMARKS
MEMPHIS INTL   SUNNY     43  22  43 NW9       30.13R
NWS MEMPHIS      N/A     43 N/A N/A MISG        N/A
JACKSON        SUNNY     41  24  51 NW10G18   30.10R
UNION CITY     SUNNY     37  14  38 CALM      30.09R
PARIS          SUNNY     36  18  48 NW8       30.07R WCI  29
HUNTINGDON     MOSUNNY   41  23  48 NW8       30.07R
$$

TNZ008-025-027-028-033-062-065-066-251800-
NORTH MIDDLE TENNESSEE

CITY           SKY/WX    TMP DP  RH WIND       PRES   REMARKS
NASHVILLE      MOSUNNY   45  19  35 NW15G25   30.02R
PORTLAND       PTSUNNY   39  21  48 W10G21    30.02R WCI  32
CLARKSVILLE    PTSUNNY   39  20  46 NW14      30.05R WCI  31
SMYRNA         MOSUNNY   46  23  40 NW14G21   30.03R
COOKEVILLE     PTSUNNY   43  30  61 NW14G20   29.95R
GALLATIN       MOSUNNY   43  21  42 W9G18     30.05R
CROSSVILLE     MOSUNNY   44  28  53 W18G26    29.91R
$$

TNZ061-075-076-078-094-096-097-251800-
SOUTH MIDDLE TENNESSEE

CITY           SKY/WX    TMP DP  RH WIND       PRES   REMARKS
FAYETTEVILLE   SUNNY     46  28  49 NW10G18   30.00R
TULLAHOMA      SUNNY     45  27  49 NW12      29.99R
WINCHESTER     SUNNY     46  28  49 W13       29.98S
MCMINNVILLE    MOSUNNY   45  27  49 W14       29.97R
COLUMBIA       SUNNY     45  23  42 W8        30.01S
SHELBYVILLE    MOSUNNY   46  30  53 NW15      30.01R
$$

TNZ017-018-042-046-047-251800-
NORTHEAST TENNESSEE

CITY           SKY/WX    TMP DP  RH WIND       PRES   REMARKS
TRI CITIES     PTSUNNY   54  39  57 SW17G26   29.78S
ELIZABETHTON   DRIZZLE   55  41  58 W15G22    29.78S
$$

TNZ012-013-036-069-073-074-251800-
CENTRAL EAST TENNESSEE

CITY           SKY/WX    TMP DP  RH WIND       PRES   REMARKS
KNOXVILLE      MOSUNNY   55  29  36 W17G24    29.86R
OAK RIDGE      SUNNY     53  27  36 W13G25    29.89R
GATLINBURG     SUNNY     55  27  33 W17       29.84R
MORRISTOWN     MOSUNNY   55  39  54 NW17      29.81R
JACKSBORO      MOSUNNY   52  30  43 NW8       29.90R
$$

TNZ083-085-099-251800-
SOUTHEAST TENNESSEE

CITY           SKY/WX    TMP DP  RH WIND       PRES   REMARKS
CHATTANOOGA    MOSUNNY   54  27  35 SW13G20   29.94R
$$

SKY/WX REPORTED AS FAIR MEANS FEW OR NO CLOUDS BELOW
12 THOUSAND FEET.





USA.gov is the U.S. government's official web portal to all federal, state and local government web resources and services.